| time (UTC) | temp C | wind direction | speed KPH | gust KPH | rain 1hr cm | rain 24hr cm | rain mn cm | humidity % | barometer mb |
| 20260507051546 | 10 | 91 | 0.0 | 4.8 | 0.00 | 0.00 | 0.00 | 84 | 1021.9 |
| 20260507051035 | 10 | 0 | 0.0 | 4.8 | 0.00 | 0.00 | 0.00 | 84 | 1022.0 |
| 20260507050535 | 10 | 58 | 0.0 | 4.8 | 0.00 | 0.00 | 0.00 | 84 | 1022.0 |
| 20260507050048 | 11 | 0 | 0.0 | 3.2 | 0.00 | 0.00 | 0.00 | 84 | 1022.0 |
| 20260507045535 | 11 | 0 | 0.0 | 3.2 | 0.00 | 0.00 | 0.00 | 84 | 1022.0 |
| 20260507045035 | 11 | 75 | 0.0 | 9.7 | 0.00 | 0.00 | 0.00 | 84 | 1022.0 |
| 20260507044548 | 11 | 0 | 0.0 | 9.7 | 0.00 | 0.00 | 0.00 | 84 | 1022.0 |
| 20260507044035 | 11 | 0 | 0.0 | 9.7 | 0.00 | 0.00 | 0.00 | 84 | 1022.0 |
| 20260507043535 | 11 | 0 | 0.0 | 8.0 | 0.00 | 0.00 | 0.00 | 84 | 1022.0 |
| 20260507043041 | 11 | 44 | 0.0 | 3.2 | 0.00 | 0.00 | 0.00 | 84 | 1022.0 |
| 20260507042534 | 11 | 91 | 0.0 | 3.2 | 0.00 | 0.00 | 0.00 | 84 | 1021.9 |
| 20260507042034 | 11 | 0 | 0.0 | 1.6 | 0.00 | 0.00 | 0.00 | 84 | 1021.9 |
| 20260507041550 | 11 | 0 | 0.0 | 6.4 | 0.00 | 0.00 | 0.00 | 84 | 1021.8 |
| 20260507041034 | 11 | 0 | 0.0 | 6.4 | 0.00 | 0.00 | 0.00 | 84 | 1021.8 |
| 20260507040535 | 11 | 0 | 0.0 | 8.0 | 0.00 | 0.00 | 0.00 | 84 | 1021.8 |
| 20260507040051 | 11 | 0 | 0.0 | 8.0 | 0.00 | 0.00 | 0.00 | 84 | 1021.8 |
| 20260507035534 | 11 | 73 | 0.0 | 8.0 | 0.00 | 0.00 | 0.00 | 84 | 1021.8 |
| 20260507035034 | 11 | 0 | 0.0 | 3.2 | 0.00 | 0.00 | 0.00 | 83 | 1021.7 |
| 20260507034554 | 11 | 0 | 0.0 | 9.7 | 0.00 | 0.00 | 0.00 | 83 | 1021.7 |
| 20260507034036 | 11 | 0 | 1.6 | 9.7 | 0.00 | 0.00 | 0.00 | 83 | 1021.7 |
| 20260507033535 | 11 | 0 | 1.6 | 9.7 | 0.00 | 0.00 | 0.00 | 83 | 1021.6 |
| 20260507033049 | 11 | 0 | 0.0 | 9.7 | 0.00 | 0.00 | 0.00 | 83 | 1021.5 |
| 20260507032535 | 11 | 56 | 3.2 | 11.3 | 0.00 | 0.00 | 0.00 | 83 | 1021.4 |
| 20260507032034 | 11 | 0 | 1.6 | 11.3 | 0.00 | 0.00 | 0.00 | 83 | 1021.4 |
| 20260507031541 | 11 | 37 | 1.6 | 11.3 | 0.00 | 0.00 | 0.00 | 82 | 1021.3 |
| 20260507031035 | 11 | 76 | 0.0 | 9.7 | 0.00 | 0.00 | 0.00 | 83 | 1021.2 |
| 20260507030536 | 12 | 63 | 0.0 | 8.0 | 0.00 | 0.00 | 0.00 | 82 | 1021.2 |
| 20260507030045 | 12 | 70 | 1.6 | 11.3 | 0.00 | 0.00 | 0.00 | 82 | 1021.1 |
| 20260507025534 | 12 | 26 | 1.6 | 11.3 | 0.00 | 0.00 | 0.00 | 82 | 1021.0 |
| 20260507025034 | 12 | 60 | 1.6 | 8.0 | 0.00 | 0.00 | 0.00 | 82 | 1021.0 |
| 20260507024556 | 12 | 57 | 1.6 | 8.0 | 0.00 | 0.00 | 0.00 | 82 | 1020.9 |
| 20260507024035 | 12 | 60 | 1.6 | 8.0 | 0.00 | 0.00 | 0.00 | 82 | 1020.9 |
| 20260507023535 | 12 | 49 | 0.0 | 6.4 | 0.00 | 0.00 | 0.00 | 82 | 1020.9 |
| 20260507023047 | 12 | 80 | 1.6 | 6.4 | 0.00 | 0.00 | 0.00 | 82 | 1020.8 |
| 20260507022535 | 12 | 62 | 1.6 | 8.0 | 0.00 | 0.00 | 0.00 | 81 | 1020.9 |
| 20260507022034 | 13 | 0 | 1.6 | 8.0 | 0.00 | 0.00 | 0.00 | 81 | 1020.9 |
| 20260507021557 | 13 | 40 | 1.6 | 6.4 | 0.00 | 0.00 | 0.00 | 80 | 1020.8 |
| 20260507021036 | 13 | 51 | 0.0 | 4.8 | 0.00 | 0.00 | 0.00 | 80 | 1020.8 |
| 20260507020535 | 13 | 0 | 0.0 | 4.8 | 0.00 | 0.00 | 0.00 | 80 | 1020.8 |
| 20260507020051 | 13 | 0 | 0.0 | 4.8 | 0.00 | 0.00 | 0.00 | 80 | 1020.8 |
| 20260507015534 | 13 | 86 | 0.0 | 8.0 | 0.00 | 0.00 | 0.00 | 80 | 1020.9 |
| 20260507015035 | 13 | 0 | 0.0 | 9.7 | 0.00 | 0.00 | 0.00 | 80 | 1020.9 |
| 20260507014545 | 13 | 0 | 0.0 | 9.7 | 0.00 | 0.00 | 0.00 | 80 | 1020.9 |
| 20260507014035 | 13 | 108 | 1.6 | 6.4 | 0.00 | 0.00 | 0.00 | 79 | 1021.0 |
| 20260507013534 | 13 | 55 | 0.0 | 9.7 | 0.00 | 0.00 | 0.00 | 79 | 1021.0 |
| 20260507013049 | 14 | 0 | 0.0 | 9.7 | 0.00 | 0.00 | 0.00 | 78 | 1021.0 |
| 20260507012536 | 14 | 0 | 1.6 | 9.7 | 0.00 | 0.00 | 0.00 | 78 | 1021.0 |
| 20260507012037 | 14 | 0 | 1.6 | 11.3 | 0.00 | 0.00 | 0.00 | 78 | 1021.1 |
| 20260507011548 | 14 | 78 | 1.6 | 14.5 | 0.00 | 0.00 | 0.00 | 77 | 1021.1 |
| 20260507011035 | 15 | 0 | 0.0 | 14.5 | 0.00 | 0.00 | 0.00 | 77 | 1021.1 |
| 20260507010536 | 15 | 0 | 1.6 | 14.5 | 0.00 | 0.00 | 0.00 | 77 | 1021.1 |
| 20260507010059 | 15 | 6 | 0.0 | 16.1 | 0.00 | 0.00 | 0.00 | 75 | 1021.1 |
| 20260507005535 | 15 | 65 | 3.2 | 16.1 | 0.00 | 0.00 | 0.00 | 77 | 1021.0 |
| 20260507005036 | 15 | 0 | 0.0 | 9.7 | 0.00 | 0.00 | 0.00 | 77 | 1021.0 |
| 20260507004543 | 15 | 62 | 1.6 | 9.7 | 0.00 | 0.00 | 0.00 | 75 | 1021.0 |
| 20260507004035 | 15 | 0 | 0.0 | 8.0 | 0.00 | 0.00 | 0.00 | 75 | 1021.0 |
| 20260507003535 | 15 | 35 | 0.0 | 4.8 | 0.00 | 0.00 | 0.00 | 75 | 1021.1 |
| 20260507003044 | 15 | 0 | 0.0 | 6.4 | 0.00 | 0.00 | 0.00 | 75 | 1021.1 |
| 20260507002535 | 15 | 0 | 0.0 | 6.4 | 0.00 | 0.00 | 0.00 | 75 | 1020.9 |
| 20260507002034 | 16 | 0 | 1.6 | 9.7 | 0.00 | 0.00 | 0.00 | 75 | 1020.9 |
| 20260507001554 | 16 | 0 | 0.0 | 9.7 | 0.00 | 0.00 | 0.00 | 75 | 1020.9 |
| 20260507001035 | 16 | 45 | 1.6 | 9.7 | 0.00 | 0.00 | 0.00 | 75 | 1020.9 |
| 20260507000535 | 16 | 75 | 0.0 | 9.7 | 0.00 | 0.00 | 0.00 | 75 | 1021.0 |
| 20260507000053 | 16 | 0 | 1.6 | 9.7 | 0.00 | 0.00 | 0.00 | 75 | 1020.9 |
| 20260506235535 | 16 | 0 | 0.0 | 9.7 | 0.00 | 0.00 | 0.00 | 75 | 1020.9 |
| 20260506235034 | 16 | 69 | 0.0 | 12.9 | 0.00 | 0.00 | 0.00 | 76 | 1021.0 |
| 20260506234546 | 16 | 0 | 0.0 | 12.9 | 0.00 | 0.00 | 0.00 | 75 | 1021.0 |
| 20260506234035 | 16 | 73 | 0.0 | 11.3 | 0.00 | 0.00 | 0.00 | 76 | 1020.9 |
| 20260506233537 | 16 | 0 | 0.0 | 11.3 | 0.00 | 0.00 | 0.00 | 76 | 1021.0 |
| 20260506233052 | 16 | 0 | 1.6 | 11.3 | 0.00 | 0.00 | 0.00 | 75 | 1020.9 |
| 20260506232535 | 16 | 0 | 0.0 | 9.7 | 0.00 | 0.00 | 0.00 | 77 | 1020.9 |
| 20260506232034 | 16 | 0 | 0.0 | 9.7 | 0.00 | 0.00 | 0.00 | 77 | 1021.0 |
| 20260506231541 | 16 | 0 | 0.0 | 9.7 | 0.00 | 0.00 | 0.00 | 76 | 1021.0 |
| 20260506231034 | 16 | 79 | 0.0 | 3.2 | 0.00 | 0.00 | 0.00 | 76 | 1021.1 |
| 20260506230535 | 16 | 0 | 0.0 | 3.2 | 0.00 | 0.00 | 0.00 | 78 | 1021.0 |
| 20260506230046 | 16 | 56 | 0.0 | 1.6 | 0.00 | 0.00 | 0.00 | 78 | 1021.0 |
| 20260506225534 | 16 | 0 | 0.0 | 1.6 | 0.00 | 0.00 | 0.00 | 79 | 1020.9 |
| 20260506225037 | 16 | 0 | 0.0 | 1.6 | 0.00 | 0.00 | 0.00 | 77 | 1021.1 |
| 20260506224552 | 16 | 0 | 0.0 | 4.8 | 0.00 | 0.00 | 0.00 | 78 | 1021.1 |
| 20260506224034 | 16 | 0 | 0.0 | 4.8 | 0.00 | 0.00 | 0.00 | 77 | 1021.2 |
| 20260506223534 | 16 | 0 | 0.0 | 4.8 | 0.00 | 0.00 | 0.00 | 77 | 1021.1 |
| 20260506223046 | 16 | 0 | 0.0 | 8.0 | 0.00 | 0.00 | 0.00 | 78 | 1021.2 |
| 20260506222534 | 16 | 0 | 0.0 | 8.0 | 0.00 | 0.00 | 0.00 | 78 | 1021.2 |
| 20260506222037 | 16 | 64 | 0.0 | 3.2 | 0.00 | 0.00 | 0.00 | 77 | 1021.3 |
| 20260506221550 | 16 | 68 | 0.0 | 4.8 | 0.00 | 0.00 | 0.00 | 78 | 1021.4 |
| 20260506221036 | 16 | 0 | 0.0 | 6.4 | 0.00 | 0.00 | 0.00 | 77 | 1021.3 |
| 20260506220537 | 16 | 70 | 0.0 | 6.4 | 0.00 | 0.00 | 0.00 | 77 | 1021.3 |
| 20260506220054 | 16 | 60 | 0.0 | 8.0 | 0.00 | 0.00 | 0.00 | 77 | 1021.3 |
| 20260506215536 | 16 | 0 | 0.0 | 8.0 | 0.00 | 0.00 | 0.00 | 77 | 1021.2 |
| 20260506215039 | 16 | 57 | 0.0 | 6.4 | 0.00 | 0.00 | 0.00 | 75 | 1021.4 |
| 20260506214556 | 16 | 47 | 0.0 | 6.4 | 0.00 | 0.00 | 0.00 | 77 | 1021.3 |
| 20260506214038 | 16 | 0 | 0.0 | 3.2 | 0.00 | 0.00 | 0.00 | 77 | 1021.3 |
| 20260506213536 | 16 | 0 | 0.0 | 4.8 | 0.00 | 0.00 | 0.00 | 77 | 1021.3 |
| 20260506213048 | 16 | 0 | 0.0 | 6.4 | 0.00 | 0.00 | 0.00 | 78 | 1021.3 |
| 20260506212536 | 16 | 0 | 0.0 | 6.4 | 0.00 | 0.00 | 0.00 | 78 | 1021.2 |
| 20260506212037 | 16 | 0 | 0.0 | 6.4 | 0.00 | 0.00 | 0.00 | 78 | 1021.1 |
| 20260506211553 | 15 | 53 | 0.0 | 9.7 | 0.00 | 0.00 | 0.00 | 79 | 1021.3 |
| 20260506211037 | 15 | 0 | 1.6 | 9.7 | 0.00 | 0.00 | 0.00 | 81 | 1021.5 |
| 20260506210538 | 15 | 75 | 0.0 | 8.0 | 0.00 | 0.00 | 0.00 | 80 | 1021.5 |
| 20260506210052 | 15 | 40 | 0.0 | 8.0 | 0.00 | 0.00 | 0.00 | 81 | 1021.6 |
| 20260506205537 | 15 | 41 | 0.0 | 8.0 | 0.00 | 0.00 | 0.00 | 80 | 1021.7 |
| 20260506205037 | 15 | 53 | 0.0 | 8.0 | 0.00 | 0.00 | 0.00 | 79 | 1021.6 |
| 20260506204555 | 15 | 0 | 0.0 | 8.0 | 0.00 | 0.00 | 0.00 | 79 | 1021.5 |
| 20260506204038 | 15 | 57 | 1.6 | 9.7 | 0.00 | 0.00 | 0.00 | 78 | 1021.7 |
| 20260506203537 | 15 | 0 | 0.0 | 9.7 | 0.00 | 0.00 | 0.00 | 79 | 1021.8 |
| 20260506203052 | 15 | 87 | 0.0 | 6.4 | 0.00 | 0.00 | 0.00 | 80 | 1021.7 |
| 20260506202537 | 15 | 0 | 1.6 | 4.8 | 0.00 | 0.00 | 0.00 | 77 | 1021.6 |
| 20260506202037 | 16 | 0 | 0.0 | 4.8 | 0.00 | 0.00 | 0.00 | 76 | 1021.6 |
| 20260506201550 | 16 | 0 | 0.0 | 4.8 | 0.00 | 0.00 | 0.00 | 78 | 1021.7 |
| 20260506201036 | 16 | 0 | 0.0 | 3.2 | 0.00 | 0.00 | 0.00 | 78 | 1021.4 |
| 20260506200536 | 16 | 0 | 0.0 | 1.6 | 0.00 | 0.00 | 0.00 | 79 | 1021.5 |
| 20260506200046 | 15 | 0 | 0.0 | 3.2 | 0.00 | 0.00 | 0.00 | 80 | 1021.6 |
| 20260506195537 | 15 | 186 | 0.0 | 3.2 | 0.00 | 0.00 | 0.00 | 80 | 1021.7 |
| 20260506195037 | 15 | 0 | 0.0 | 3.2 | 0.00 | 0.00 | 0.00 | 83 | 1021.6 |
| 20260506194551 | 14 | 0 | 0.0 | 4.8 | 0.00 | 0.00 | 0.00 | 83 | 1021.7 |
| 20260506194036 | 14 | 50 | 0.0 | 4.8 | 0.00 | 0.00 | 0.00 | 84 | 1021.7 |
| 20260506193537 | 13 | 0 | 0.0 | 4.8 | 0.00 | 0.00 | 0.00 | 83 | 1021.7 |
| 20260506193050 | 13 | 0 | 0.0 | 6.4 | 0.00 | 0.00 | 0.00 | 84 | 1021.7 |
| 20260506192537 | 13 | 51 | 1.6 | 6.4 | 0.00 | 0.00 | 0.00 | 84 | 1021.9 |
| 20260506192037 | 13 | 70 | 1.6 | 4.8 | 0.00 | 0.00 | 0.00 | 84 | 1022.0 |
| 20260506191558 | 13 | 79 | 0.0 | 1.6 | 0.00 | 0.00 | 0.00 | 85 | 1021.9 |
| 20260506191035 | 12 | 0 | 0.0 | 8.0 | 0.00 | 0.00 | 0.00 | 86 | 1021.9 |
| 20260506190535 | 12 | 0 | 1.6 | 8.0 | 0.00 | 0.00 | 0.00 | 86 | 1021.8 |
| 20260506190049 | 12 | 75 | 0.0 | 8.0 | 0.00 | 0.00 | 0.00 | 87 | 1021.8 |
| 20260506185534 | 12 | 72 | 1.6 | 6.4 | 0.00 | 0.00 | 0.00 | 86 | 1021.8 |
| 20260506185034 | 12 | 0 | 0.0 | 4.8 | 0.00 | 0.00 | 0.00 | 87 | 1022.0 |
| 20260506184547 | 12 | 0 | 0.0 | 4.8 | 0.00 | 0.00 | 0.00 | 86 | 1021.8 |
| 20260506184035 | 12 | 0 | 0.0 | 4.8 | 0.00 | 0.00 | 0.00 | 87 | 1021.8 |
| 20260506183535 | 12 | 0 | 0.0 | 4.8 | 0.00 | 0.00 | 0.00 | 86 | 1021.7 |
| 20260506183049 | 12 | 66 | 0.0 | 4.8 | 0.00 | 0.00 | 0.00 | 86 | 1021.7 |
| 20260506182535 | 12 | 0 | 0.0 | 3.2 | 0.00 | 0.00 | 0.00 | 85 | 1021.8 |
| 20260506182035 | 12 | 0 | 0.0 | 0.0 | 0.00 | 0.00 | 0.00 | 87 | 1021.8 |
| 20260506181550 | 12 | 0 | 0.0 | 1.6 | 0.00 | 0.00 | 0.00 | 87 | 1021.7 |
| 20260506181035 | 11 | 0 | 0.0 | 1.6 | 0.00 | 0.00 | 0.00 | 88 | 1021.6 |
| 20260506180538 | 11 | 0 | 0.0 | 1.6 | 0.00 | 0.00 | 0.00 | 86 | 1021.9 |
| 20260506180051 | 11 | 0 | 0.0 | 1.6 | 0.00 | 0.00 | 0.00 | 87 | 1021.7 |
| 20260506175537 | 11 | 0 | 0.0 | 1.6 | 0.00 | 0.00 | 0.00 | 88 | 1021.7 |
| 20260506175038 | 11 | 0 | 0.0 | 1.6 | 0.00 | 0.00 | 0.00 | 87 | 1021.7 |
| 20260506174557 | 11 | 0 | 0.0 | 1.6 | 0.00 | 0.00 | 0.00 | 87 | 1021.7 |
| 20260506174034 | 11 | 0 | 0.0 | 1.6 | 0.00 | 0.00 | 0.00 | 88 | 1021.8 |
| 20260506173533 | 11 | 0 | 0.0 | 4.8 | 0.00 | 0.00 | 0.00 | 88 | 1021.8 |
| 20260506173115 | 11 | 40 | 0.0 | 4.8 | 0.00 | 0.00 | 0.00 | 87 | 1021.5 |
| 20260506172536 | 11 | 58 | 0.0 | 3.2 | 0.00 | 0.00 | 0.00 | 87 | 1021.4 |
| 20260506172035 | 11 | 0 | 0.0 | 3.2 | 0.00 | 0.00 | 0.00 | 87 | 1021.4 |
| 20260506171549 | 11 | 0 | 0.0 | 3.2 | 0.00 | 0.00 | 0.00 | 88 | 1021.6 |
| 20260506171035 | 11 | 68 | 0.0 | 0.0 | 0.00 | 0.00 | 0.00 | 88 | 1021.5 |
| 20260506170534 | 11 | 0 | 0.0 | 1.6 | 0.00 | 0.00 | 0.00 | 88 | 1021.4 |
| 20260506170053 | 11 | 0 | 0.0 | 1.6 | 0.00 | 0.00 | 0.00 | 88 | 1021.3 |
| 20260506165535 | 11 | 0 | 0.0 | 1.6 | 0.00 | 0.00 | 0.00 | 88 | 1021.3 |
| 20260506165035 | 11 | 0 | 0.0 | 1.6 | 0.00 | 0.00 | 0.00 | 88 | 1021.3 |
| 20260506164550 | 11 | 0 | 0.0 | 3.2 | 0.00 | 0.00 | 0.00 | 89 | 1021.3 |
| 20260506164035 | 11 | 0 | 0.0 | 3.2 | 0.00 | 0.00 | 0.00 | 88 | 1021.3 |
| 20260506163535 | 11 | 0 | 0.0 | 1.6 | 0.00 | 0.00 | 0.00 | 89 | 1021.5 |
| 20260506163054 | 11 | 0 | 0.0 | 1.6 | 0.00 | 0.00 | 0.00 | 89 | 1021.5 |
| 20260506162535 | 11 | 0 | 0.0 | 0.0 | 0.00 | 0.00 | 0.00 | 89 | 1021.4 |
| 20260506162035 | 11 | 0 | 0.0 | 1.6 | 0.00 | 0.00 | 0.00 | 88 | 1021.6 |
| 20260506161553 | 11 | 0 | 0.0 | 1.6 | 0.00 | 0.00 | 0.00 | 88 | 1021.4 |
| 20260506161037 | 11 | 0 | 0.0 | 0.0 | 0.00 | 0.00 | 0.00 | 88 | 1021.5 |
| 20260506160534 | 11 | 0 | 0.0 | 0.0 | 0.00 | 0.00 | 0.00 | 88 | 1021.4 |
| 20260506160047 | 11 | 0 | 0.0 | 0.0 | 0.00 | 0.00 | 0.00 | 89 | 1021.0 |
| 20260506155534 | 11 | 0 | 0.0 | 0.0 | 0.00 | 0.03 | 0.00 | 89 | 1020.9 |
| 20260506155035 | 11 | 0 | 0.0 | 1.6 | 0.00 | 0.03 | 0.00 | 90 | 1021.0 |
| 20260506154600 | 11 | 0 | 0.0 | 1.6 | 0.00 | 0.03 | 0.00 | 90 | 1020.8 |
| 20260506154034 | 11 | 0 | 0.0 | 1.6 | 0.00 | 0.03 | 0.00 | 90 | 1020.6 |
| 20260506153535 | 11 | 0 | 0.0 | 1.6 | 0.00 | 0.03 | 0.00 | 90 | 1020.7 |
| 20260506153046 | 11 | 0 | 0.0 | 1.6 | 0.00 | 0.03 | 0.00 | 90 | 1020.6 |
| 20260506152534 | 10 | 73 | 0.0 | 0.0 | 0.00 | 0.03 | 0.00 | 91 | 1020.6 |
| 20260506152038 | 10 | 0 | 0.0 | 1.6 | 0.00 | 0.03 | 0.00 | 91 | 1020.7 |
| 20260506151547 | 10 | 0 | 0.0 | 4.8 | 0.00 | 0.03 | 0.00 | 91 | 1020.8 |
| 20260506151037 | 10 | 0 | 0.0 | 4.8 | 0.00 | 0.03 | 0.00 | 90 | 1021.0 |
| 20260506150535 | 10 | 62 | 0.0 | 4.8 | 0.00 | 0.03 | 0.00 | 90 | 1021.1 |
| 20260506150057 | 10 | 0 | 0.0 | 1.6 | 0.00 | 0.03 | 0.00 | 90 | 1021.3 |
| 20260506145535 | 10 | 0 | 0.0 | 1.6 | 0.00 | 0.05 | 0.00 | 90 | 1021.1 |
| 20260506145038 | 10 | 0 | 0.0 | 1.6 | 0.00 | 0.05 | 0.00 | 90 | 1021.2 |
| 20260506144603 | 10 | 0 | 0.0 | 3.2 | 0.00 | 0.05 | 0.00 | 90 | 1021.0 |
| 20260506144034 | 10 | 0 | 0.0 | 3.2 | 0.00 | 0.05 | 0.00 | 90 | 1021.0 |
| 20260506143535 | 10 | 0 | 0.0 | 3.2 | 0.00 | 0.05 | 0.00 | 90 | 1021.0 |
| 20260506143052 | 10 | 0 | 0.0 | 3.2 | 0.00 | 0.05 | 0.00 | 90 | 1020.7 |
| 20260506142534 | 10 | 0 | 0.0 | 3.2 | 0.00 | 0.05 | 0.00 | 90 | 1020.8 |
| 20260506142034 | 10 | 0 | 0.0 | 1.6 | 0.00 | 0.05 | 0.00 | 90 | 1020.9 |
| 20260506141546 | 10 | 0 | 0.0 | 4.8 | 0.00 | 0.05 | 0.00 | 91 | 1020.7 |
| 20260506141037 | 10 | 0 | 0.0 | 4.8 | 0.00 | 0.05 | 0.00 | 91 | 1020.4 |
| 20260506140537 | 10 | 75 | 0.0 | 4.8 | 0.00 | 0.05 | 0.00 | 90 | 1020.4 |
| 20260506140104 | 10 | 65 | 0.0 | 4.8 | 0.00 | 0.05 | 0.00 | 90 | 1020.2 |
| 20260506135535 | 10 | 0 | 0.0 | 4.8 | 0.00 | 0.05 | 0.00 | 90 | 1020.3 |
| 20260506135034 | 10 | 59 | 0.0 | 6.4 | 0.00 | 0.05 | 0.00 | 90 | 1020.3 |
| 20260506134547 | 10 | 59 | 0.0 | 6.4 | 0.00 | 0.05 | 0.00 | 90 | 1020.3 |
| 20260506134037 | 10 | 0 | 0.0 | 6.4 | 0.00 | 0.05 | 0.00 | 90 | 1020.2 |
| 20260506133535 | 10 | 67 | 0.0 | 3.2 | 0.00 | 0.05 | 0.00 | 90 | 1020.2 |
| 20260506133101 | 10 | 0 | 0.0 | 3.2 | 0.00 | 0.05 | 0.00 | 90 | 1020.2 |
| 20260506132533 | 11 | 60 | 0.0 | 3.2 | 0.00 | 0.05 | 0.00 | 90 | 1020.3 |
| 20260506132035 | 11 | 0 | 0.0 | 3.2 | 0.00 | 0.05 | 0.00 | 90 | 1020.2 |
| 20260506131547 | 11 | 0 | 0.0 | 6.4 | 0.00 | 0.05 | 0.00 | 90 | 1020.1 |
| 20260506131035 | 11 | 48 | 1.6 | 6.4 | 0.00 | 0.05 | 0.00 | 90 | 1020.2 |
| 20260506130535 | 11 | 0 | 0.0 | 4.8 | 0.00 | 0.05 | 0.00 | 90 | 1019.9 |
| 20260506130114 | 11 | 0 | 0.0 | 3.2 | 0.00 | 0.05 | 0.00 | 90 | 1019.8 |
| 20260506125535 | 11 | 0 | 0.0 | 3.2 | 0.00 | 0.05 | 0.00 | 90 | 1019.8 |
| 20260506125036 | 11 | 0 | 0.0 | 3.2 | 0.00 | 0.05 | 0.00 | 90 | 1019.8 |
| 20260506124552 | 11 | 0 | 0.0 | 3.2 | 0.00 | 0.05 | 0.00 | 90 | 1019.8 |
| 20260506124036 | 11 | 0 | 0.0 | 0.0 | 0.00 | 0.05 | 0.00 | 90 | 1019.8 |
| 20260506123536 | 11 | 0 | 0.0 | 0.0 | 0.00 | 0.05 | 0.00 | 90 | 1019.7 |
| 20260506123048 | 11 | 0 | 0.0 | 0.0 | 0.00 | 0.05 | 0.00 | 90 | 1019.6 |
| 20260506122536 | 11 | 0 | 0.0 | 0.0 | 0.00 | 0.05 | 0.00 | 90 | 1019.6 |
| 20260506122035 | 11 | 0 | 0.0 | 0.0 | 0.00 | 0.05 | 0.00 | 90 | 1019.7 |
| 20260506121553 | 11 | 0 | 0.0 | 0.0 | 0.00 | 0.05 | 0.00 | 90 | 1019.6 |
| 20260506121036 | 11 | 0 | 0.0 | 1.6 | 0.00 | 0.05 | 0.00 | 90 | 1019.7 |
| 20260506120536 | 11 | 0 | 0.0 | 1.6 | 0.00 | 0.05 | 0.00 | 89 | 1019.7 |
| 20260506120052 | 11 | 0 | 0.0 | 1.6 | 0.00 | 0.05 | 0.00 | 90 | 1019.6 |
| 20260506115536 | 11 | 0 | 0.0 | 6.4 | 0.00 | 0.05 | 0.00 | 89 | 1019.7 |
| 20260506115036 | 11 | 0 | 0.0 | 6.4 | 0.00 | 0.05 | 0.00 | 90 | 1019.7 |
| 20260506114547 | 11 | 0 | 0.0 | 4.8 | 0.00 | 0.05 | 0.00 | 89 | 1019.7 |
| 20260506114036 | 11 | 0 | 0.0 | 4.8 | 0.00 | 0.05 | 0.00 | 90 | 1019.6 |
| 20260506113536 | 11 | 49 | 0.0 | 4.8 | 0.00 | 0.05 | 0.00 | 89 | 1019.5 |
| 20260506113052 | 11 | 0 | 0.0 | 8.0 | 0.00 | 0.05 | 0.00 | 89 | 1019.5 |
| 20260506112537 | 11 | 69 | 1.6 | 8.0 | 0.00 | 0.05 | 0.00 | 89 | 1019.4 |
| 20260506112035 | 11 | 0 | 0.0 | 6.4 | 0.00 | 0.05 | 0.00 | 89 | 1019.5 |
| 20260506111548 | 11 | 0 | 0.0 | 1.6 | 0.00 | 0.05 | 0.00 | 89 | 1019.4 |
| 20260506111036 | 11 | 0 | 0.0 | 1.6 | 0.00 | 0.05 | 0.00 | 89 | 1019.4 |
| 20260506110536 | 11 | 0 | 0.0 | 3.2 | 0.00 | 0.05 | 0.00 | 89 | 1019.3 |
| 20260506110045 | 11 | 0 | 0.0 | 3.2 | 0.00 | 0.05 | 0.00 | 89 | 1019.2 |
| 20260506105537 | 11 | 0 | 0.0 | 1.6 | 0.00 | 0.05 | 0.00 | 89 | 1019.2 |
| 20260506105036 | 11 | 0 | 0.0 | 1.6 | 0.00 | 0.05 | 0.00 | 89 | 1019.1 |
| 20260506104553 | 11 | 0 | 0.0 | 4.8 | 0.00 | 0.05 | 0.00 | 89 | 1019.1 |
| 20260506104036 | 11 | 0 | 0.0 | 4.8 | 0.00 | 0.05 | 0.00 | 89 | 1019.0 |
| 20260506103537 | 11 | 0 | 0.0 | 0.0 | 0.00 | 0.05 | 0.00 | 89 | 1019.0 |
| 20260506103045 | 11 | 0 | 0.0 | 1.6 | 0.00 | 0.05 | 0.00 | 89 | 1018.9 |
| 20260506102537 | 11 | 0 | 0.0 | 1.6 | 0.00 | 0.05 | 0.00 | 89 | 1018.9 |
| 20260506102037 | 11 | 0 | 0.0 | 1.6 | 0.00 | 0.05 | 0.00 | 89 | 1018.8 |
| 20260506101550 | 11 | 0 | 0.0 | 1.6 | 0.00 | 0.05 | 0.00 | 88 | 1018.8 |
| 20260506101036 | 11 | 0 | 0.0 | 1.6 | 0.00 | 0.05 | 0.00 | 88 | 1018.7 |
| 20260506100536 | 11 | 0 | 0.0 | 1.6 | 0.00 | 0.05 | 0.00 | 89 | 1018.6 |
| 20260506100105 | 11 | 0 | 0.0 | 1.6 | 0.00 | 0.05 | 0.00 | 89 | 1018.5 |
| 20260506095536 | 11 | 0 | 0.0 | 1.6 | 0.00 | 0.05 | 0.00 | 89 | 1018.5 |
| 20260506095035 | 11 | 0 | 0.0 | 4.8 | 0.00 | 0.05 | 0.00 | 89 | 1018.4 |
| 20260506094600 | 11 | 0 | 0.0 | 4.8 | 0.00 | 0.05 | 0.00 | 89 | 1018.4 |
| 20260506094037 | 11 | 0 | 0.0 | 4.8 | 0.00 | 0.05 | 0.00 | 88 | 1018.4 |
| 20260506093536 | 11 | 0 | 0.0 | 1.6 | 0.00 | 0.05 | 0.00 | 88 | 1018.4 |
| 20260506093045 | 11 | 0 | 0.0 | 1.6 | 0.00 | 0.05 | 0.00 | 88 | 1018.3 |
| 20260506092537 | 11 | 0 | 0.0 | 1.6 | 0.00 | 0.05 | 0.00 | 88 | 1018.3 |
| 20260506092037 | 11 | 0 | 0.0 | 8.0 | 0.00 | 0.05 | 0.00 | 88 | 1018.4 |
| 20260506091547 | 11 | 0 | 1.6 | 8.0 | 0.00 | 0.05 | 0.00 | 88 | 1018.3 |
| 20260506091036 | 11 | 46 | 0.0 | 6.4 | 0.00 | 0.05 | 0.00 | 88 | 1018.3 |
| 20260506090536 | 11 | 51 | 0.0 | 4.8 | 0.00 | 0.05 | 0.00 | 88 | 1018.3 |
| 20260506090049 | 11 | 0 | 0.0 | 4.8 | 0.00 | 0.05 | 0.00 | 88 | 1018.3 |
| 20260506085537 | 11 | 39 | 0.0 | 4.8 | 0.00 | 0.05 | 0.00 | 88 | 1018.3 |
| 20260506085039 | 11 | 0 | 0.0 | 1.6 | 0.00 | 0.05 | 0.00 | 88 | 1018.3 |
| 20260506084553 | 11 | 52 | 0.0 | 1.6 | 0.00 | 0.05 | 0.00 | 88 | 1018.3 |
| 20260506084036 | 11 | 0 | 0.0 | 1.6 | 0.00 | 0.05 | 0.00 | 88 | 1018.3 |
| 20260506083536 | 11 | 0 | 0.0 | 1.6 | 0.00 | 0.05 | 0.00 | 87 | 1018.3 |
| 20260506083054 | 11 | 0 | 0.0 | 1.6 | 0.00 | 0.05 | 0.00 | 87 | 1018.3 |
| 20260506082537 | 11 | 0 | 0.0 | 1.6 | 0.00 | 0.05 | 0.00 | 87 | 1018.3 |
| 20260506082036 | 11 | 0 | 0.0 | 1.6 | 0.00 | 0.05 | 0.00 | 87 | 1018.3 |
| 20260506081602 | 12 | 0 | 0.0 | 1.6 | 0.00 | 0.05 | 0.00 | 87 | 1018.4 |
| 20260506081038 | 12 | 0 | 0.0 | 1.6 | 0.00 | 0.05 | 0.00 | 87 | 1018.3 |
| 20260506080536 | 12 | 0 | 0.0 | 1.6 | 0.00 | 0.05 | 0.00 | 87 | 1018.3 |
| 20260506073052 | 12 | 0 | 0.0 | 0.0 | 0.00 | 0.05 | 0.00 | 86 | 1018.0 |
| 20260506072539 | 12 | 0 | 0.0 | 0.0 | 0.00 | 0.05 | 0.00 | 86 | 1018.0 |
| 20260506072037 | 12 | 0 | 0.0 | 0.0 | 0.00 | 0.05 | 0.00 | 86 | 1018.1 |
| 20260506071550 | 12 | 0 | 0.0 | 0.0 | 0.00 | 0.05 | 0.00 | 86 | 1018.1 |
| 20260506071036 | 12 | 0 | 0.0 | 1.6 | 0.00 | 0.05 | 0.00 | 86 | 1018.1 |
| 20260506070537 | 12 | 0 | 0.0 | 1.6 | 0.00 | 0.05 | 0.00 | 86 | 1017.9 |
| 20260506062036 | 13 | 41 | 0.0 | 4.8 | 0.00 | 0.05 | 0.05 | 84 | 1017.8 |
| 20260506061546 | 13 | 0 | 0.0 | 3.2 | 0.00 | 0.05 | 0.05 | 84 | 1017.8 |
| 20260506061037 | 13 | 56 | 0.0 | 4.8 | 0.00 | 0.05 | 0.05 | 84 | 1017.7 |
| 20260506060537 | 13 | 0 | 1.6 | 4.8 | 0.00 | 0.05 | 0.05 | 83 | 1017.7 |